Home > Weather > Darlington > Past weeks

Flag for United Kingdom Weather for the Past 2 Weeks in Darlington, England, United Kingdom

Now
41 °F

Passing clouds.


Feels Like: 37 °F
Forecast: N/A
Wind: 6 mph from West

Location: Tees-Side

Current Time: Feb 11, 2016 at 5:43:32 PM

Latest Report: Feb 11, 2016 at 5:20 PM


Visibility: N/A

Pressure: 29.53 "Hg

Humidity: 70%

Dew point: 32 °F

Location of DarlingtonLocation

Historic Weather in Darlington — Graph

°F

Darlington Temperature Yesterday

Maximum temperature yesterday: 45 °F (at 12:20 PM)
Minimum temperature yesterday: 37 °F (at 12:20 AM)
Average temperature yesterday: 41 °F

High & Low Weather Summary for the Past Weeks

 TemperatureHumidityPressure
High57 °F (Feb 1, 10:50 AM)94% (Feb 6, 3:20 PM)30.21 "Hg (Feb 6, 3:20 PM)
Low32 °F (Feb 11, 7:20 AM)47% (Jan 29, 12:20 PM)28.62 "Hg (Feb 8, 6:20 AM)
Average44 °F73%29.50 "Hg
* Reported Jan 27 4:20 PM — Feb 11 4:20 PM, Darlington, Weather by CustomWeather, © 2016

Note: Actual official high and low records may vary slightly from our data, if they occured in-between our weather recording intervals... More about our weather records

Advertising

Darlington Weather History for the Previous 24 Hours

 ConditionsComfort  
Time TempWeatherWind HumidityBarometerVisibility
4:20 PM
Thu, Feb 11
43 °FPassing clouds.9 mph66%29.53 "HgN/A
3:50 PM45 °FPassing clouds.8 mph66%29.53 "HgN/A
3:20 PM43 °FPassing clouds.6 mph76%29.53 "HgN/A
2:50 PM41 °FPassing clouds.6 mph81%29.56 "HgN/A
2:20 PM39 °FPassing clouds.8 mph81%29.56 "HgN/A
1:50 PM39 °FPassing clouds.8 mph81%29.56 "HgN/A
1:20 PM39 °FPassing clouds.8 mph81%29.56 "HgN/A
12:50 PM39 °FPassing clouds.7 mph81%29.56 "HgN/A
12:20 PM37 °FPassing clouds.10 mph81%29.56 "HgN/A
11:50 AM37 °FPassing clouds.9 mph81%29.56 "HgN/A
11:20 AM39 °FPassing clouds.8 mph75%29.59 "HgN/A
10:50 AM37 °FSunny.3 mph75%29.59 "Hg10 mi
10:20 AM37 °FSunny.7 mph75%29.59 "Hg10 mi
9:50 AM37 °FSunny.7 mph75%29.59 "Hg10 mi
9:20 AM34 °FPassing clouds.8 mph87%29.56 "HgN/A
8:50 AM34 °FPassing clouds.9 mph81%29.56 "HgN/A
8:20 AM34 °FSunny.2 mph87%29.56 "Hg10 mi
7:50 AM32 °FSunny.9 mph87%29.56 "Hg10 mi
7:20 AM32 °FClear.7 mph87%29.56 "Hg10 mi
6:50 AM34 °FClear.9 mph87%29.56 "Hg10 mi
6:20 AM34 °FClear.9 mph81%29.56 "Hg10 mi
5:50 AM34 °FClear.12 mph87%29.56 "Hg10 mi
9:50 PM
Wed, Feb 10
37 °FClear.9 mph81%29.50 "Hg10 mi
9:20 PM37 °FClear.10 mph81%29.50 "Hg10 mi
8:50 PM39 °FClear.10 mph75%29.47 "Hg10 mi
8:20 PM37 °FClear.7 mph75%29.47 "Hg10 mi
7:50 PM37 °FPassing clouds.6 mph75%29.47 "HgN/A
7:20 PM39 °FClear.8 mph70%29.47 "Hg10 mi
6:50 PM39 °FClear.9 mph70%29.47 "Hg10 mi
6:20 PM41 °FPassing clouds.7 mph66%29.47 "HgN/A
5:50 PM41 °FPassing clouds.8 mph66%29.47 "HgN/A
5:20 PM43 °FPassing clouds.12 mph61%29.45 "HgN/A
Weather by CustomWeather, © 2016

See weather overviewHow to use our weather pages